Lac la Martre, Northwest Territories

10:15 PM MDT on August 18, 2017 (GMT -0600)
Lac la Martre

Weather History for CWMT - October, 2013

Change the Weather History Date:

Saturday, October 19, 2013

  Actual Average Record
Temperature  
Mean Temperature 37 °F -  
Max Temperature 40 °F - - ()
Min Temperature 34 °F - - ()
Degree Days  
Heating Degree Days 28    
Moisture  
Dew Point 36 °F    
Average Humidity 97    
Maximum Humidity 100    
Minimum Humidity 91    
Precipitation  
Precipitation 0.00 in - - ()
Sea Level Pressure  
Sea Level Pressure 29.90 in    
Wind  
Wind Speed 5 mph ()    
Max Wind Speed 12 mph    
Max Gust Speed -    
T = Trace of Precipitation, MM = Missing Value Source: Averaged Metar Reports

Daily Weather History Graph

Daily Weather History Graph

Search for Another Location

Airport or City:

Trip Planner

Search our weather history database for the weather conditions in past years. The results will help you decide how hot, cold, wet, or windy it might be!

Date:

Astronomy

Oct. 19, 2013 Rise Set
Actual Time 8:49 AM MDT 6:17 PM MDT
Civil Twilight 8:01 AM MDT 7:05 PM MDT
Nautical Twilight 7:07 AM MDT 7:58 PM MDT
Astronomical Twilight 6:14 AM MDT 8:52 PM MDT
Moon 6:20 PM MDT 9:53 AM MDT
Length of Visible Light 11h 03m
Length of Day
9h 28m
Full, 99% of the Moon is Illuminated
Oct 19
Full
Oct 26
Last Quarter
Nov 3
New
Nov 9
First Quarter
Nov 17
Full

Hourly Weather History & Observations

Time (MDT) Temp. Windchill Dew Point Humidity Pressure Visibility Wind Dir Wind Speed Gust Speed Precip Events Conditions
12:00 AM 37 °F - 37 °F 98% 29.77 in - ESE 4.6 mph - -  
12:00 AM 37.0 °F 33.3 °F 36.7 °F 99% 29.77 in - ESE 4.6 mph - N/A   Unknown
1:00 AM 36.5 °F 33.9 °F 36.3 °F 99% 29.78 in - East 3.5 mph - N/A   Unknown
2:00 AM 36.0 °F 32.1 °F 35.8 °F 99% 29.79 in - East 4.6 mph - N/A   Unknown
3:00 AM 35.2 °F 30.3 °F 35.1 °F 99% 29.81 in - East 5.8 mph - N/A   Unknown
4:00 AM 34.7 °F 29.6 °F 34.5 °F 99% 29.82 in - East 5.8 mph - N/A   Unknown
5:00 AM 34.5 °F 30.4 °F 34.5 °F 100% 29.84 in - East 4.6 mph - N/A   Unknown
6:00 AM 34 °F - 34 °F 100% 29.86 in - East 4.6 mph - -  
6:00 AM 34.3 °F 30.2 °F 34.3 °F 100% 29.86 in - East 4.6 mph - N/A   Unknown
7:00 AM 34.3 °F 31.4 °F 34.3 °F 100% 29.88 in - East 3.5 mph - N/A   Unknown
8:00 AM 34.3 °F 31.4 °F 34.3 °F 100% 29.89 in - East 3.5 mph - N/A   Unknown
9:00 AM 34.3 °F 31.4 °F 34.3 °F 100% 29.92 in - East 3.5 mph - N/A   Unknown
10:00 AM 34.9 °F 32.0 °F 34.9 °F 100% 29.93 in - ESE 3.5 mph - N/A   Unknown
11:00 AM 35.6 °F 31.7 °F 35.4 °F 99% 29.94 in - SE 4.6 mph - N/A   Unknown
12:00 PM 37 °F - 36 °F 94% 29.96 in - SSE 5.8 mph - -  
12:00 PM 36.7 °F 32.0 °F 36.0 °F 97% 29.96 in - SSE 5.8 mph - N/A   Unknown
1:00 PM 37.8 °F 34.2 °F 37.4 °F 99% 29.96 in - SSE 4.6 mph - N/A   Unknown
2:00 PM 38.8 °F 34.6 °F 37.6 °F 95% 29.96 in - SSE 5.8 mph - N/A   Unknown
3:00 PM 39.4 °F 34.5 °F 37.9 °F 95% 29.96 in - South 6.9 mph - N/A   Unknown
4:00 PM 40.1 °F 36.9 °F 39.0 °F 96% 29.96 in - South 4.6 mph - N/A   Unknown
5:00 PM 40.3 °F 35.5 °F 38.8 °F 95% 29.96 in - South 6.9 mph - N/A   Unknown
6:00 PM 40 °F - 39 °F 93% 29.95 in - SSE 6.9 mph - -  
6:00 PM 39.9 °F 35.1 °F 38.7 °F 95% 29.95 in - SSE 6.9 mph - N/A   Unknown
7:00 PM 39.0 °F 34.0 °F 38.3 °F 97% 29.94 in - SSE 6.9 mph - N/A   Unknown
8:00 PM 38.5 °F 31.1 °F 37.4 °F 96% 29.94 in - South 11.5 mph - N/A   Unknown
9:00 PM 37.9 °F 31.5 °F 37.2 °F 97% 29.93 in - South 9.2 mph - N/A   Unknown
10:00 PM 37.4 °F 30.3 °F 36.1 °F 95% 29.92 in - SSE 10.4 mph - N/A   Unknown
11:00 PM 36.9 °F 29.6 °F 34.5 °F 91% 29.91 in - SSE 10.4 mph - N/A   Unknown